Weather History for Crookston, MN

Change the Weather History Date:

Tuesday, August 20, 2013

  Actual Average Record
Temperature  
Mean Temperature 82 °F -  
Max Temperature 96 °F 76 °F 96 °F (2013)
Min Temperature 69 °F 52 °F 32 °F (2004)
Cooling Degree Days 18    
Growing Degree Days 32 (Base 50)    
Moisture  
Dew Point 68 °F    
Average Humidity 67    
Maximum Humidity 94    
Minimum Humidity 32    
Precipitation  
Precipitation 0.00 in - - ()
Sea Level Pressure  
Sea Level Pressure 29.74 in    
Wind  
Wind Speed 10 mph (SSW)    
Max Wind Speed 20 mph    
Max Gust Speed 25 mph    
Visibility 9 miles    
Events Thunderstorm    
Averages and records for this station are not official NWS values.
T = Trace of Precipitation, MM = Missing Value Source: NWS Daily Summary

Daily Weather History Graph

Daily Weather History Graph

Search for Another Location

Airport:

Trip Planner

Search our weather history database for the weather conditions in past years. The results will help you decide how hot, cold, wet, or windy it might be!

Date:

Astronomy

Aug. 20, 2013 Rise Set
Actual Time 6:28 AM CDT 8:29 PM CDT
Civil Twilight 5:55 AM CDT 9:03 PM CDT
Nautical Twilight 5:14 AM CDT 9:44 PM CDT
Astronomical Twilight 4:28 AM CDT 10:29 PM CDT
Moon 7:56 PM CDT (8/20) 6:02 AM CDT (8/20)
Length of Visible Light 15h 07m
Length of Day
14h 00m
Full, 100% of the Moon is Illuminated
Aug 20
Full
Aug 20
Full
Aug 28
Last Quarter
Sep 5
New
Sep 12
First Quarter

Hourly Weather History & Observations

Time (CDT) Temp. Heat Index Dew Point Humidity Pressure Visibility Wind Dir Wind Speed Gust Speed Precip Events Conditions
12:14 AM 75.2 °F - 69.8 °F 83% 29.79 in 10.0 mi South 9.2 mph - N/A   Clear
12:34 AM 75.2 °F - 69.8 °F 83% 29.79 in 10.0 mi South 11.5 mph - N/A   Clear
12:55 AM 75.2 °F - 69.8 °F 83% 29.79 in 10.0 mi South 11.5 mph - N/A   Clear
1:14 AM 75.2 °F - 69.8 °F 83% 29.78 in 10.0 mi South 10.4 mph - N/A   Clear
1:35 AM 75.2 °F - 69.8 °F 83% 29.78 in 10.0 mi South 11.5 mph - N/A   Clear
1:54 AM 75.2 °F - 69.8 °F 83% 29.78 in 10.0 mi South 11.5 mph - N/A   Scattered Clouds
2:15 AM 73.4 °F - 69.8 °F 88% 29.77 in 10.0 mi South 10.4 mph - N/A   Scattered Clouds
2:34 AM 73.4 °F - 69.8 °F 88% 29.77 in 10.0 mi South 12.7 mph - N/A   Scattered Clouds
2:54 AM 73.4 °F - 69.8 °F 88% 29.77 in 10.0 mi SSW 11.5 mph 17.3 mph N/A   Scattered Clouds
3:14 AM 73.4 °F - 69.8 °F 88% 29.77 in 10.0 mi South 10.4 mph - N/A   Mostly Cloudy
3:35 AM 71.6 °F - 69.8 °F 94% 29.77 in 10.0 mi SSW 9.2 mph - N/A   Scattered Clouds
3:54 AM 71.6 °F - 69.8 °F 94% 29.77 in 10.0 mi South 6.9 mph - N/A   Clear
4:14 AM 71.6 °F - 69.8 °F 94% 29.77 in 10.0 mi South 9.2 mph - N/A   Clear
4:35 AM 71.6 °F - 68.0 °F 88% 29.76 in 7.0 mi South 9.2 mph - N/A   Clear
4:54 AM 71.6 °F - 68.0 °F 88% 29.76 in 7.0 mi South 8.1 mph - N/A   Clear
5:14 AM 71.6 °F - 68.0 °F 88% 29.76 in 7.0 mi South 6.9 mph - N/A   Clear
5:35 AM 69.8 °F - 68.0 °F 94% 29.76 in 7.0 mi South 6.9 mph - N/A   Clear
5:54 AM 69.8 °F - 68.0 °F 94% 29.76 in 7.0 mi South 6.9 mph - N/A   Clear
6:15 AM 71.6 °F - 68.0 °F 88% 29.76 in 7.0 mi South 5.8 mph - N/A   Clear
6:34 AM 69.8 °F - 68.0 °F 94% 29.76 in 5.0 mi South 6.9 mph - N/A   Clear
6:55 AM 69.8 °F - 68.0 °F 94% 29.77 in 5.0 mi South 6.9 mph - N/A   Clear
7:14 AM 71.6 °F - 68.0 °F 88% 29.77 in 5.0 mi South 8.1 mph - N/A   Clear
7:35 AM 71.6 °F - 69.8 °F 94% 29.78 in 5.0 mi SSW 10.4 mph - N/A   Clear
7:54 AM 71.6 °F - 69.8 °F 94% 29.78 in 5.0 mi South 10.4 mph - N/A   Clear
8:14 AM 73.4 °F - 69.8 °F 88% 29.78 in 7.0 mi SSW 11.5 mph - N/A   Clear
8:35 AM 73.4 °F - 69.8 °F 88% 29.78 in 7.0 mi SSW 12.7 mph - N/A   Clear
8:54 AM 73.4 °F - 69.8 °F 88% 29.78 in 10.0 mi SSW 10.4 mph - N/A   Clear
9:15 AM 75.2 °F - 69.8 °F 83% 29.79 in 10.0 mi SW 11.5 mph - N/A   Clear
9:34 AM 77.0 °F - 69.8 °F 78% 29.78 in 10.0 mi SW 8.1 mph - N/A   Clear
9:55 AM 78.8 °F - 69.8 °F 74% 29.77 in 10.0 mi SW 9.2 mph - N/A   Clear
10:14 AM 80.6 °F 83.9 °F 69.8 °F 70% 29.77 in 10.0 mi WSW 8.1 mph - N/A   Clear
10:34 AM 80.6 °F 83.9 °F 69.8 °F 70% 29.78 in 10.0 mi SSW 9.2 mph - N/A   Clear
10:54 AM 80.6 °F 83.2 °F 68.0 °F 65% 29.78 in 10.0 mi South 5.8 mph - N/A   Clear
11:14 AM 82.4 °F 86.3 °F 69.8 °F 66% 29.77 in 10.0 mi SSW 8.1 mph - N/A   Clear
11:35 AM 84.2 °F 88.4 °F 69.8 °F 62% 29.77 in 10.0 mi SSW 8.1 mph - N/A   Clear
11:54 AM 84.2 °F 88.4 °F 69.8 °F 62% 29.77 in 10.0 mi SSW 9.2 mph - N/A   Clear
12:15 PM 87.8 °F 92.6 °F 69.8 °F 55% 29.76 in 10.0 mi South 9.2 mph - N/A   Clear
12:34 PM 87.8 °F 90.4 °F 66.2 °F 49% 29.76 in 10.0 mi South 9.2 mph - N/A   Clear
12:55 PM 89.6 °F 92.2 °F 66.2 °F 46% 29.76 in 10.0 mi SW 6.9 mph - N/A   Clear
1:14 PM 89.6 °F 92.2 °F 66.2 °F 46% 29.76 in 10.0 mi SSW 9.2 mph - N/A   Clear
1:34 PM 91.4 °F 94.0 °F 66.2 °F 43% 29.76 in 10.0 mi SSW 10.4 mph - N/A   Clear
1:55 PM 91.4 °F 94.0 °F 66.2 °F 43% 29.75 in 10.0 mi SW 8.1 mph - N/A   Clear
2:14 PM 93.2 °F 94.9 °F 64.4 °F 38% 29.74 in 10.0 mi SW 10.4 mph - N/A   Clear
2:35 PM 93.2 °F 94.9 °F 64.4 °F 38% 29.73 in 10.0 mi SSW 9.2 mph - N/A   Clear
2:54 PM 93.2 °F 94.9 °F 64.4 °F 38% 29.73 in 10.0 mi SSW 8.1 mph - N/A   Clear
3:15 PM 93.2 °F 94.1 °F 62.6 °F 36% 29.72 in 10.0 mi SSW 8.1 mph - N/A   Clear
3:34 PM 95.0 °F 95.2 °F 60.8 °F 32% 29.71 in 10.0 mi SW 11.5 mph - N/A   Clear
3:54 PM 96.8 °F 98.0 °F 62.6 °F 32% 29.71 in 10.0 mi SW 10.4 mph - N/A   Clear
4:15 PM 96.8 °F 98.0 °F 62.6 °F 32% 29.70 in 10.0 mi SW 10.4 mph - N/A   Clear
4:34 PM 96.8 °F 98.0 °F 62.6 °F 32% 29.70 in 10.0 mi SW 15.0 mph 19.6 mph N/A   Clear
4:55 PM 96.8 °F 99.0 °F 64.4 °F 34% 29.70 in 10.0 mi SSW 17.3 mph 21.9 mph N/A   Clear
5:14 PM 95.0 °F 97.0 °F 64.4 °F 36% 29.70 in 10.0 mi SSW 18.4 mph - N/A   Clear
5:34 PM 95.0 °F 98.5 °F 66.2 °F 39% 29.70 in 10.0 mi SSW 17.3 mph 25.3 mph N/A   Clear
5:55 PM 93.2 °F 96.2 °F 66.2 °F 41% 29.69 in 10.0 mi SSW 13.8 mph 19.6 mph N/A   Clear
6:14 PM 93.2 °F 94.9 °F 64.4 °F 38% 29.69 in 10.0 mi SW 19.6 mph 25.3 mph N/A   Clear
6:35 PM 93.2 °F 94.9 °F 64.4 °F 38% 29.69 in 10.0 mi SSW 15.0 mph - N/A   Clear
6:54 PM 93.2 °F 97.7 °F 68.0 °F 44% 29.68 in 10.0 mi SSW 16.1 mph - N/A   Clear
7:14 PM 91.4 °F 95.4 °F 68.0 °F 46% 29.68 in 10.0 mi SSW 12.7 mph - N/A   Clear
7:35 PM 91.4 °F 96.8 °F 69.8 °F 49% 29.67 in 10.0 mi SSW 15.0 mph 20.7 mph N/A   Clear
7:54 PM 89.6 °F 94.7 °F 69.8 °F 52% 29.67 in 10.0 mi South 12.7 mph - N/A   Clear
8:15 PM 89.6 °F 93.4 °F 68.0 °F 49% 29.68 in 10.0 mi South 13.8 mph - N/A   Clear
8:34 PM 87.8 °F 92.6 °F 69.8 °F 55% 29.68 in 10.0 mi SSW 16.1 mph - N/A   Clear
8:55 PM 86.0 °F 90.4 °F 69.8 °F 58% 29.69 in 10.0 mi SSW 15.0 mph 21.9 mph N/A   Clear
9:14 PM 84.2 °F 89.6 °F 71.6 °F 66% 29.69 in 10.0 mi SSW 12.7 mph 18.4 mph N/A   Clear
9:34 PM 84.2 °F 89.6 °F 71.6 °F 66% 29.70 in 10.0 mi SSW 11.5 mph - N/A   Clear
9:54 PM 82.4 °F 87.2 °F 71.6 °F 70% 29.71 in 10.0 mi SW 9.2 mph - N/A   Clear
10:14 PM 82.4 °F 87.2 °F 71.6 °F 70% 29.73 in 10.0 mi West 9.2 mph - N/A   Clear
10:35 PM 80.6 °F 84.6 °F 71.6 °F 74% 29.72 in 10.0 mi West 5.8 mph - N/A   Clear
10:54 PM 80.6 °F 83.9 °F 69.8 °F 70% 29.72 in 10.0 mi WSW 5.8 mph - N/A   Clear
11:15 PM 80.6 °F 83.2 °F 68.0 °F 65% 29.72 in 10.0 mi SW 8.1 mph - N/A   Clear
11:34 PM 78.8 °F - 69.8 °F 74% 29.74 in 10.0 mi WSW 8.1 mph - N/A Thunderstorm Unknown
11:54 PM 80.6 °F 83.2 °F 68.0 °F 65% 29.75 in 10.0 mi WNW 11.5 mph - N/A Thunderstorm Thunderstorm